User: anonymous   Login
Location: Burland Observatory
(39.4088°N, 105.4217°W)
Time: 15:08:50
(UTC-07:00)
Language:

SR - Orbit

View from above orbital plane
View from above orbital plane
View from above satellite
View from above satellite

Ground track
Ground track

The orbit data is extracted from the following two-line orbital elements,

1    46U 60007B   19346.89556337 -.00000040 +00000-0 +15485-4 0  9994
2    46 066.6889 193.3015 0217402 270.9570 086.6637 14.49262257111936
Epoch (UTC): 12 December 2019 21:29:36
Eccentricity: 0.0217402
inclination: 66.6889°
perigee height: 573 km
apogee height: 882 km
right ascension of ascending node: 193.3015°
argument of perigee: 270.9570°
revolutions per day: 14.49262257
mean anomaly at epoch: 86.6637°
orbit number at epoch: 11193

The dashed part of the orbit path shows where the satellite is in the earth's shadow,  

DLR